Weather History for KCIR - May, 2013

Change the Weather History Date:

Monday, May 13, 2013

  Actual Average Record
Temperature  
Mean Temperature 58 °F -  
Max Temperature 73 °F 76 °F 92 °F (1962)
Min Temperature 43 °F 58 °F 43 °F (1960)
Degree Days  
Heating Degree Days 7    
Growing Degree Days 8 (Base 50)    
Moisture  
Dew Point 40 °F    
Average Humidity 54    
Maximum Humidity 86    
Minimum Humidity 25    
Precipitation  
Precipitation 0.00 in - - ()
Sea Level Pressure  
Sea Level Pressure 30.19 in    
Wind  
Wind Speed 2 mph (South)    
Max Wind Speed 8 mph    
Max Gust Speed -    
Visibility 10 miles    
Events      
Averages and records for this station are not official NWS values.
T = Trace of Precipitation, MM = Missing Value Source: NWS Daily Summary

Daily Weather History Graph

Daily Weather History Graph

Search for Another Location

Airport or City:

Trip Planner

Search our weather history database for the weather conditions in past years. The results will help you decide how hot, cold, wet, or windy it might be!

Date:

Astronomy

May. 13, 2013 Rise Set
Actual Time 5:50 AM CDT 7:56 PM CDT
Civil Twilight 5:21 AM CDT 8:25 PM CDT
Nautical Twilight 4:46 AM CDT 9:01 PM CDT
Astronomical Twilight 4:07 AM CDT 9:39 PM CDT
Moon 8:36 AM CDT (5/13) 11:05 PM CDT (5/13)
Length of Visible Light 15h 04m
Length of Day
14h 06m
Waxing Crescent, 12% of the Moon is Illuminated
May 13
Waxing Crescent
May 17
First Quarter
May 24
Full
May 31
Last Quarter
Jun 8
New

Hourly Weather History & Observations

Time (CDT) Temp. Dew Point Humidity Pressure Visibility Wind Dir Wind Speed Gust Speed Precip Events Conditions
12:15 AM 48.4 °F 41.9 °F 78% 30.19 in 10.0 mi Calm Calm - N/A   Clear
12:35 AM 48.4 °F 42.1 °F 79% 30.19 in 10.0 mi Calm Calm - N/A   Clear
12:55 AM 48.2 °F 41.9 °F 79% 30.19 in 10.0 mi Calm Calm - N/A   Clear
1:15 AM 47.3 °F 41.7 °F 81% 30.20 in 10.0 mi Calm Calm - N/A   Clear
1:35 AM 46.9 °F 41.5 °F 81% 30.19 in 10.0 mi Calm Calm - N/A   Clear
1:55 AM 46.4 °F 41.2 °F 82% 30.19 in 10.0 mi Calm Calm - N/A   Clear
2:15 AM 45.9 °F 41.0 °F 83% 30.19 in 10.0 mi Calm Calm - N/A   Clear
2:35 AM 45.9 °F 41.2 °F 84% 30.18 in 10.0 mi Calm Calm - N/A   Clear
2:55 AM 45.5 °F 41.0 °F 84% 30.19 in 10.0 mi Calm Calm - N/A   Clear
3:15 AM 45.5 °F 41.0 °F 84% 30.20 in 10.0 mi Calm Calm - N/A   Clear
3:35 AM 44.8 °F 40.6 °F 85% 30.20 in 10.0 mi Calm Calm - N/A   Clear
3:55 AM 44.8 °F 40.6 °F 85% 30.20 in 10.0 mi Calm Calm - N/A   Clear
4:15 AM 44.6 °F 40.3 °F 85% 30.20 in 10.0 mi Calm Calm - N/A   Clear
4:35 AM 44.2 °F 40.3 °F 86% 30.20 in 10.0 mi Calm Calm - N/A   Clear
4:55 AM 44.2 °F 40.3 °F 86% 30.21 in 10.0 mi Calm Calm - N/A   Clear
5:15 AM 44.2 °F 40.1 °F 85% 30.20 in 10.0 mi Calm Calm - N/A   Clear
5:35 AM 43.7 °F 39.4 °F 85% 30.21 in 10.0 mi Calm Calm - N/A   Clear
5:55 AM 43.3 °F 39.2 °F 85% 30.21 in 10.0 mi Calm Calm - N/A   Clear
6:15 AM 44.2 °F 40.1 °F 85% 30.21 in 10.0 mi Calm Calm - N/A   Clear
6:35 AM 44.8 °F 40.6 °F 85% 30.22 in 10.0 mi Calm Calm - N/A   Clear
6:55 AM 47.3 °F 43.2 °F 86% 30.23 in 10.0 mi Calm Calm - N/A   Clear
7:15 AM 49.8 °F 45.7 °F 86% 30.23 in 10.0 mi Calm Calm - N/A   Clear
7:35 AM 53.8 °F 49.1 °F 84% 30.24 in 10.0 mi Calm Calm - N/A   Clear
7:55 AM 57.2 °F 50.7 °F 79% 30.24 in 10.0 mi Calm Calm - N/A   Clear
8:15 AM 58.6 °F 41.7 °F 53% 30.25 in 10.0 mi South 3.5 mph - N/A   Clear
8:35 AM 60.1 °F 40.1 °F 48% 30.25 in 10.0 mi South 3.5 mph - N/A   Clear
9:15 AM 61.9 °F 40.8 °F 46% 30.26 in 10.0 mi South 3.5 mph - N/A   Clear
9:35 AM 63.5 °F 40.5 °F 43% 30.26 in 10.0 mi West 3.5 mph - N/A   Clear
9:55 AM 63.9 °F 37.6 °F 38% 30.27 in 10.0 mi SSW 5.8 mph - N/A   Clear
10:15 AM 64.8 °F 37.2 °F 36% 30.27 in 10.0 mi WSW 5.8 mph - N/A   Clear
10:35 AM 65.3 °F 39.2 °F 38% 30.27 in 10.0 mi WSW 5.8 mph - N/A   Clear
10:55 AM 65.7 °F 33.4 °F 30% 30.27 in 10.0 mi SW 4.6 mph - N/A   Clear
11:15 AM 66.7 °F 31.5 °F 27% 30.27 in 10.0 mi SW 5.8 mph - N/A   Clear
11:35 AM 67.6 °F 32.0 °F 27% 30.27 in 10.0 mi SW 3.5 mph - N/A   Clear
11:55 AM 68.0 °F 32.7 °F 27% 30.26 in 10.0 mi SSW 4.6 mph - N/A   Clear
12:15 PM 67.6 °F 32.2 °F 27% 30.25 in 10.0 mi WSW 4.6 mph - N/A   Clear
12:35 PM 68.7 °F 32.9 °F 27% 30.25 in 10.0 mi SW 4.6 mph - N/A   Clear
12:55 PM 68.9 °F 32.9 °F 26% 30.24 in 10.0 mi SW 4.6 mph - N/A   Scattered Clouds
1:15 PM 69.8 °F 35.4 °F 28% 30.23 in 10.0 mi SSW 3.5 mph - N/A   Clear
1:35 PM 69.8 °F 33.3 °F 26% 30.23 in 10.0 mi SSW 4.6 mph - N/A   Clear
1:55 PM 71.1 °F 35.1 °F 27% 30.22 in 10.0 mi West 3.5 mph - N/A   Clear
2:15 PM 70.9 °F 33.6 °F 25% 30.21 in 10.0 mi WNW 4.6 mph - N/A   Clear
2:35 PM 70.7 °F 32.9 °F 25% 30.20 in 10.0 mi South 3.5 mph - N/A   Clear
3:35 PM 71.6 °F 34.9 °F 26% 30.18 in 10.0 mi SSE 4.6 mph - N/A   Clear
3:55 PM 72.5 °F 36.9 °F 27% 30.17 in 10.0 mi SSE 5.8 mph - N/A   Clear
4:15 PM 72.7 °F 37.6 °F 28% 30.17 in 10.0 mi SE 6.9 mph - N/A   Clear
4:35 PM 72.7 °F 36.9 °F 27% 30.16 in 10.0 mi SE 6.9 mph - N/A   Clear
4:55 PM 73.0 °F 37.9 °F 28% 30.16 in 10.0 mi SE 6.9 mph - N/A   Clear
5:15 PM 73.0 °F 38.7 °F 29% 30.15 in 10.0 mi SE 8.1 mph - N/A   Clear
5:35 PM 72.9 °F 38.8 °F 29% 30.15 in 10.0 mi ESE 5.8 mph - N/A   Clear
5:55 PM 72.5 °F 38.3 °F 29% 30.14 in 10.0 mi SSE 6.9 mph - N/A   Clear
6:55 PM 71.1 °F 39.4 °F 32% 30.14 in 10.0 mi South 5.8 mph - N/A   Clear
7:15 PM 69.6 °F 40.3 °F 34% 30.14 in 10.0 mi South 6.9 mph - N/A   Clear
7:35 PM 68.0 °F 40.8 °F 37% 30.13 in 10.0 mi South 4.6 mph - N/A   Clear
7:55 PM 67.3 °F 41.0 °F 38% 30.13 in 10.0 mi South 4.6 mph - N/A   Clear
8:15 PM 65.3 °F 43.0 °F 44% 30.13 in 10.0 mi SSE 4.6 mph - N/A   Clear
8:35 PM 64.9 °F 44.1 °F 47% 30.13 in 10.0 mi SE 3.5 mph - N/A   Clear
8:55 PM 64.8 °F 43.9 °F 47% 30.13 in 10.0 mi SSE 4.6 mph - N/A   Clear
9:15 PM 63.0 °F 44.8 °F 51% 30.13 in 10.0 mi SE 4.6 mph - N/A   Clear
9:35 PM 61.9 °F 45.0 °F 54% 30.14 in 10.0 mi SE 4.6 mph - N/A   Clear
9:55 PM 63.1 °F 43.7 °F 49% 30.14 in 10.0 mi SSE 4.6 mph - N/A   Clear
10:15 PM 61.2 °F 45.9 °F 57% 30.14 in 10.0 mi SSE 4.6 mph - N/A   Clear
10:35 PM 62.1 °F 46.4 °F 56% 30.13 in 10.0 mi SSE 4.6 mph - N/A   Clear
10:55 PM 61.0 °F 45.5 °F 57% 30.13 in 10.0 mi SE 6.9 mph - N/A   Clear
11:15 PM 61.7 °F 44.6 °F 53% 30.13 in 10.0 mi SE 4.6 mph - N/A   Clear
11:35 PM 62.1 °F 44.8 °F 53% 30.12 in 10.0 mi SSE 4.6 mph - N/A   Clear
11:55 PM 61.9 °F 44.8 °F 53% 30.11 in 10.0 mi SSE 6.9 mph - N/A   Clear